Home   Weather   Dublin   Past weeks

Flag for Ireland Past Weather in Dublin, Ireland — Yesterday and Last 2 Weeks

Now
50 °F

Drizzle. Fog.


Feels Like: 45 °F
Forecast: 44 / 54 °F
Wind: 14 mph from West

Location: Dublin Airport

Current Time: Feb 19, 2017 at 11:45:35 am

Latest Report: Feb 19, 2017 at 11:00 am


Visibility: 2 mi

Pressure: 30.12 "Hg

Humidity: 94%

Dew Point: 48 °F

Location of DublinLocation

Past Weather in Dublin — Graph

°F

Dublin Temperature Yesterday

Maximum temperature yesterday: 54 °F (at 1:30 pm)
Minimum temperature yesterday: 48 °F (at 12:30 am)
Average temperature yesterday: 51 °F

High & Low Weather Summary for the Past Weeks

 TemperatureHumidityPressure
High54 °F (Feb 15, 11:30 am)100% (Feb 5, 12:30 am)30.45 "Hg (Feb 5, 12:30 am)
Low25 °F (Feb 5, 8:00 am)56% (Feb 10, 3:30 pm)29.30 "Hg (Feb 4, 10:00 am)
Average42 °F83%30.10 "Hg
* Reported Feb 4 10:00 am — Feb 19 10:30 am, Dublin, Weather by CustomWeather, © 2017

Note: Actual official high and low records may vary slightly from our data, if they occured in-between our weather recording intervals... More about our weather records

Advertising

Dublin Weather History for the Previous 24 Hours

Scroll right to see more
 ConditionsComfort  
Time TempWeatherWind HumidityBarometerVisibility
10:30 am
Sun, Feb 19
48 °FFog.15 mph100%30.12 "Hg2 mi
10:00 am48 °FDrizzle. Fog.15 mph100%30.12 "Hg2 mi
9:30 am48 °FDrizzle. Mostly cloudy.15 mph94%30.12 "Hg2 mi
9:00 am46 °FDrizzle. Partly sunny.13 mph100%30.12 "Hg4 mi
8:30 am46 °FDrizzle. Broken clouds.14 mph100%30.12 "Hg2 mi
8:00 am46 °FDrizzle. Partly sunny.15 mph93%30.12 "Hg3 mi
7:30 am46 °FPassing clouds.12 mph93%30.09 "HgN/A
7:00 am46 °FPassing clouds.13 mph93%30.09 "Hg6 mi
6:30 am46 °FPartly cloudy.12 mph93%30.09 "HgN/A
6:00 am46 °FPartly cloudy.12 mph93%30.09 "HgN/A
5:30 am46 °FPartly cloudy.12 mph87%30.09 "HgN/A
5:00 am46 °FPartly cloudy.14 mph87%30.09 "HgN/A
4:30 am46 °FPartly cloudy.12 mph87%30.09 "HgN/A
4:00 am46 °FPartly cloudy.14 mph82%30.09 "HgN/A
3:30 am46 °FPartly cloudy.12 mph82%30.09 "HgN/A
3:00 am46 °FPartly cloudy.15 mph82%30.09 "HgN/A
2:30 am46 °FPartly cloudy.14 mph82%30.12 "HgN/A
2:00 am46 °FPartly cloudy.9 mph82%30.12 "HgN/A
1:30 am46 °FPartly cloudy.12 mph82%30.12 "HgN/A
1:00 am46 °FPartly cloudy.14 mph82%30.12 "HgN/A
12:30 am46 °FPassing clouds.16 mph82%30.12 "HgN/A
12:00 am46 °FPassing clouds.16 mph87%30.12 "HgN/A
11:30 pm
Sat, Feb 18
48 °FPassing clouds.15 mph76%30.12 "HgN/A
11:00 pm48 °FPassing clouds.12 mph76%30.12 "HgN/A
10:30 pm48 °FPassing clouds.12 mph76%30.12 "HgN/A
10:00 pm48 °FPassing clouds.13 mph71%30.12 "HgN/A
9:30 pm48 °FPassing clouds.16 mph76%30.12 "HgN/A
9:00 pm48 °FPassing clouds.12 mph82%30.12 "HgN/A
8:30 pm48 °FPassing clouds.14 mph82%30.09 "HgN/A
8:00 pm48 °FPassing clouds.12 mph82%30.09 "HgN/A
7:30 pm50 °FPassing clouds.12 mph76%30.09 "HgN/A
7:00 pm50 °FPassing clouds.10 mph76%30.09 "HgN/A
6:30 pm50 °FPassing clouds.12 mph76%30.09 "HgN/A
6:00 pm50 °FPassing clouds.14 mph76%30.09 "HgN/A
5:30 pm50 °FPartly sunny.15 mph76%30.09 "HgN/A
5:00 pm52 °FPartly sunny.16 mph72%30.09 "HgN/A
4:30 pm52 °FPartly sunny.16 mph77%30.07 "HgN/A
4:00 pm54 °FScattered clouds.14 mph77%30.07 "HgN/A
3:30 pm54 °FBroken clouds.13 mph77%30.07 "HgN/A
3:00 pm54 °FBroken clouds.15 mph82%30.07 "HgN/A
2:30 pm54 °FBroken clouds.13 mph82%30.07 "HgN/A
2:00 pm52 °FBroken clouds.13 mph88%30.07 "HgN/A
1:30 pm54 °FBroken clouds.14 mph82%30.07 "HgN/A
1:00 pm52 °FBroken clouds.10 mph88%30.09 "HgN/A
12:30 pm52 °FPartly sunny.12 mph88%30.09 "HgN/A
12:00 pm52 °FBroken clouds.9 mph88%30.09 "HgN/A
11:30 am50 °FDrizzle. Broken clouds.9 mph94%30.09 "HgN/A
11:00 am50 °FDrizzle. Partly sunny.14 mph94%30.09 "Hg2 mi
Weather by CustomWeather, © 2017

See weather overviewHow to use our weather pages